Weather in Dubovik

Russia / Oryol Oblast     52°25′23″N   36°37′56″E
temp.,
°C
wind,
m/s
gust,
m/s
humid.,
%
clouds,
%
prec.,
mm/h
press.,
hPa
HPBL,
m
6 may, thu
thu600:00+11s51472100 0.0 1011473
03:00+10s51273100 0.0 1011372
06:00+11s61474100 0.0 1011520
09:00+12s71370100 0.0 10101094
12:00+14ssw9145399 0.0 10091647
15:00+10ssw71581100 0.5 10101383
18:00+9sw61193100 1.4 1011711
21:00+8sw3794100 2.0 1012322
7 may, fri
fri700:00+7wsw3797100 0.0 1013185
03:00+5w3694100 0.0 1014112
06:00+5wsw22855 0.0 101531
09:00+11ssw23575 0.0 1016500
12:00+14ssw45425 0.0 10161752
15:00+15ssw4743100 0.0 10152228
18:00+14s3762100 0.0 1013283
21:00+10sse487499 0.0 1014132
8 may, sat
sat800:00+11sse61465100 0.0 1012436
03:00+10s61280100 0.4 1010506
06:00+9sse61394100 2.4 1008546
09:00+11s71495100 5.9 1006752
12:00+11ssw61196100 1.2 1006776
15:00+9wnw71292100 4.6 1008682
18:00+8wnw61081100 1.5 1009820
21:00+6w3883100 1.5 1011297
9 may, sun
sun900:00+5w4108097 0.0 1012497
03:00+3w5118913 0.0 1013442
06:00+3wnw51192100 0.0 1014559
09:00+6nw6974100 0.0 10161184
12:00+8nw8972100 0.1 10171269
15:00+9nnw71063100 0.2 10191577
18:00+11nnw595927 0.1 10201058
21:00+6nw411760 0.1 1022218
10 may, mon
mon1000:00+4nw411790 0.0 1024206
03:00+3nw410774 0.0 1025180
06:00+3nnw410770 0.0 1027224
09:00+9n610610 0.0 1026827
12:00+12n811515 0.0 10251605
15:00+13n912505 0.0 10241677
18:00+12nne71259100 0.0 10241239
21:00+10nne61360100 0.0 1024871